Weather History for Kenosha, WI

Change the Weather History Date:

Monday, May 12, 2014

  Actual Average Record
Temperature  
Mean Temperature 66 °F -  
Max Temperature 80 °F 60 °F 87 °F (2011)
Min Temperature 53 °F 43 °F 32 °F (1971)
Cooling Degree Days 2    
Growing Degree Days 16 (Base 50)    
Moisture  
Dew Point 63 °F    
Average Humidity 86    
Maximum Humidity 97    
Minimum Humidity 69    
Precipitation  
Precipitation 0.98 in - - ()
Sea Level Pressure  
Sea Level Pressure 29.87 in    
Wind  
Wind Speed 9 mph (SSE)    
Max Wind Speed 26 mph    
Max Gust Speed 37 mph    
Visibility 8 miles    
Events Rain , Thunderstorm    
Averages and records for this station are not official NWS values.
T = Trace of Precipitation, MM = Missing Value Source: NWS Daily Summary

Daily Weather History Graph

Daily Weather History Graph

Search for Another Location

Airport:

Trip Planner

Search our weather history database for the weather conditions in past years. The results will help you decide how hot, cold, wet, or windy it might be!

Date:

Astronomy

May. 12, 2014 Rise Set
Actual Time 5:32 AM CDT 8:04 PM CDT
Civil Twilight 5:00 AM CDT 8:36 PM CDT
Nautical Twilight 4:20 AM CDT 9:16 PM CDT
Astronomical Twilight 3:36 AM CDT 10:01 PM CDT
Moon 5:59 PM CDT (5/12) 4:15 AM CDT (5/12)
Length of Visible Light 15h 35m
Length of Day
14h 31m
Waxing Gibbous, 95% of the Moon is Illuminated
May 12
Waxing Gibbous
May 14
Full
May 21
Last Quarter
May 28
New
Jun 5
First Quarter

Hourly Weather History & Observations

Time (CDT) Temp. Heat Index Dew Point Humidity Pressure Visibility Wind Dir Wind Speed Gust Speed Precip Events Conditions
12:53 AM 53.1 °F - 51.1 °F 93% 29.91 in 10.0 mi East 5.8 mph - N/A   Partly Cloudy
1:53 AM 55.9 °F - 54.0 °F 93% 29.89 in 9.0 mi SE 5.8 mph - 0.00 in   Mostly Cloudy
2:53 AM 59.0 °F - 57.0 °F 93% 29.86 in 9.0 mi SE 6.9 mph - N/A   Scattered Clouds
3:53 AM 60.1 °F - 57.9 °F 93% 29.86 in 10.0 mi South 10.4 mph - N/A   Mostly Cloudy
4:16 AM 61.0 °F - 57.9 °F 90% 29.86 in 10.0 mi South 9.2 mph - N/A   Overcast
4:53 AM 61.0 °F - 59.0 °F 93% 29.85 in 10.0 mi South 9.2 mph - N/A   Mostly Cloudy
5:08 AM 62.1 °F - 60.1 °F 93% 29.85 in 10.0 mi South 8.1 mph - N/A   Scattered Clouds
5:53 AM 62.1 °F - 61.0 °F 96% 29.84 in 8.0 mi South 5.8 mph - N/A   Overcast
6:43 AM 64.9 °F - 63.0 °F 93% 29.86 in 9.0 mi South 8.1 mph - N/A   Overcast
6:53 AM 64.9 °F - 63.0 °F 93% 29.86 in 10.0 mi South 5.8 mph - N/A   Overcast
7:09 AM 66.0 °F - 64.0 °F 93% 29.86 in 10.0 mi South 8.1 mph - N/A   Overcast
7:53 AM 68.0 °F - 64.9 °F 90% 29.84 in 10.0 mi South 8.1 mph - N/A   Scattered Clouds
8:21 AM 70.0 °F - 66.0 °F 87% 29.85 in 10.0 mi South 6.9 mph - N/A   Mostly Cloudy
9:53 AM 75.0 °F - 68.0 °F 79% 29.85 in 10.0 mi SW 11.5 mph - N/A   Mostly Cloudy
10:53 AM 77.0 °F - 68.0 °F 74% 29.86 in 10.0 mi SW 17.3 mph 28.8 mph N/A   Mostly Cloudy
11:53 AM 79.0 °F - 69.1 °F 72% 29.85 in 10.0 mi SW 16.1 mph 23.0 mph N/A   Mostly Cloudy
12:53 PM 79.0 °F - 68.0 °F 69% 29.86 in 10.0 mi SW 16.1 mph 20.7 mph N/A   Mostly Cloudy
1:53 PM 80.1 °F 82.9 °F 69.1 °F 69% 29.86 in 10.0 mi Variable 5.8 mph - N/A   Mostly Cloudy
2:01 PM 72.0 °F - 64.0 °F 76% 29.87 in 10.0 mi ENE 13.8 mph - N/A   Overcast
2:17 PM 70.0 °F - 63.0 °F 78% 29.88 in 10.0 mi East 11.5 mph - N/A   Overcast
2:33 PM 66.0 °F - 59.0 °F 78% 29.87 in 10.0 mi East 11.5 mph - N/A   Overcast
2:53 PM 68.0 °F - 61.0 °F 78% 29.86 in 10.0 mi East 11.5 mph - N/A   Mostly Cloudy
3:53 PM 69.1 °F - 62.1 °F 78% 29.83 in 10.0 mi ESE 10.4 mph - 0.00 in Rain Light Rain
4:53 PM 68.0 °F - 62.1 °F 81% 29.83 in 10.0 mi East 3.5 mph - 0.00 in Thunderstorm Clear
5:00 PM 68.0 °F - 62.1 °F 81% 29.83 in 10.0 mi ESE 6.9 mph - N/A Thunderstorm Thunderstorm
5:53 PM 66.9 °F - 64.0 °F 90% 29.82 in 10.0 mi NNE 10.4 mph - 0.01 in Rain , Thunderstorm Light Thunderstorms and Rain
6:53 PM 72.0 °F - 66.0 °F 81% 29.81 in 10.0 mi SE 8.1 mph - 0.03 in Thunderstorm Thunderstorm
7:00 PM 71.1 °F - 66.9 °F 87% 29.82 in 10.0 mi WNW 12.7 mph 18.4 mph N/A Thunderstorm Thunderstorm
7:01 PM 70.0 °F - 66.9 °F 90% 29.82 in 10.0 mi NW 11.5 mph 18.4 mph N/A   Scattered Clouds
7:08 PM 73.0 °F - 66.9 °F 81% 29.81 in 10.0 mi NNE 6.9 mph 17.3 mph N/A   Scattered Clouds
7:53 PM 70.0 °F - 64.0 °F 81% 29.83 in 10.0 mi SE 11.5 mph - N/A   Mostly Cloudy
8:00 PM 70.0 °F - 64.0 °F 81% 29.83 in 10.0 mi SSE 11.5 mph - N/A Thunderstorm Thunderstorm
8:03 PM 70.0 °F - 64.0 °F 81% 29.83 in 10.0 mi South 11.5 mph - N/A Thunderstorm Thunderstorm
8:22 PM 70.0 °F - 64.0 °F 81% 29.87 in 2.0 mi South 18.4 mph 26.5 mph 0.02 in Rain , Thunderstorm Heavy Thunderstorms and Rain
8:53 PM 69.1 °F - 64.0 °F 84% 29.91 in 2.0 mi South 9.2 mph - 0.13 in Rain , Thunderstorm Heavy Thunderstorms and Rain
8:56 PM 69.1 °F - 64.0 °F 84% 29.91 in 8.0 mi SE 12.7 mph - 0.01 in Rain , Thunderstorm Rain
9:06 PM 68.0 °F - 64.0 °F 87% 29.88 in 2.5 mi ENE 12.7 mph - 0.15 in Rain , Thunderstorm Heavy Thunderstorms and Rain
9:17 PM 68.0 °F - 64.0 °F 87% 29.89 in 7.0 mi ENE 6.9 mph - 0.17 in Rain , Thunderstorm Light Thunderstorms and Rain
10:16 PM 66.0 °F - 64.0 °F 93% 29.92 in 3.0 mi WNW 26.5 mph 36.8 mph 0.14 in Rain , Thunderstorm Light Thunderstorms and Rain
10:27 PM 64.9 °F - 62.1 °F 90% 29.96 in 1.8 mi WSW 9.2 mph - 0.33 in Rain , Thunderstorm Heavy Thunderstorms and Rain
10:44 PM 64.0 °F - 61.0 °F 90% 29.91 in 2.0 mi West 3.5 mph - 0.57 in Rain , Thunderstorm Heavy Thunderstorms and Rain
10:53 PM 63.0 °F - 62.1 °F 97% 29.89 in 2.5 mi Calm Calm - 0.61 in Rain , Thunderstorm Light Thunderstorms and Rain
11:01 PM 63.0 °F - 62.1 °F 97% 29.90 in 10.0 mi Calm Calm - 0.00 in Rain , Thunderstorm Light Rain
11:28 PM 64.0 °F - 63.0 °F 96% 29.91 in 9.0 mi SW 11.5 mph - 0.01 in Rain , Thunderstorm Light Thunderstorms and Rain
11:32 PM 64.0 °F - 63.0 °F 96% 29.91 in 1.8 mi WSW 6.9 mph - 0.14 in Rain , Thunderstorm Heavy Thunderstorms and Rain
11:43 PM 64.0 °F - 63.0 °F 96% 29.90 in 3.0 mi West 6.9 mph - 0.18 in Rain , Thunderstorm Light Thunderstorms and Rain
11:53 PM 64.0 °F - 63.0 °F 96% 29.91 in 7.0 mi West 9.2 mph - 0.20 in Rain , Thunderstorm Light Rain